Regional Weather Roundup
Issued by NWS Nashville, TN

Home | Current Version | Previous Version | Text Only | Print | Product List | Glossary On
Versions: 1 2 3 4 5 6 7 8 9 10 11 12 13 14 15 16 17 18 19 20 21 22 23 24 25 26 27 28 29 30 31 32 33 34 35 36 37 38 39 40 41 42 43 44 45 46 47 48 49 50
000
ASUS44 KOHX 020515
RWROHX
MIDDLE TENNESSEE HOURLY WEATHER ROUNDUP
NATIONAL WEATHER SERVICE NASHVILLE TN
1200 AM CDT TUE SEP 02 2014

NOTE: "FAIR" INDICATES FEW OR NO CLOUDS BELOW 12,000 FEET WITH
NO SIGNIFICANT WEATHER AND/OR OBSTRUCTIONS TO VISIBILITY.

* THESE REPORTS ARE NOT UNDER NWS QUALITY CONTROL AND MAY NOT
  REPORT WEATHER SUCH AS PRECIPITATION AND FOG.


TNZ005>011-023>034-057-059-062>066-078-080-020600
...NORTHERN MIDDLE TENNESSEE...

CITY           SKY/WX    TMP DP  RH WIND       PRES   REMARKS
CLARKSVILLE    CLEAR     75  69  81 S3        29.99F
CROSSVILLE     CLEAR     72  69  90 CALM      30.13F
GALLATIN         N/A     73  71  93 CALM      30.04S
DICKSON        CLEAR     75  70  83 S6        30.03R
LEBANON        CLEAR     71  68  90 CALM      30.02S
LIVINGSTON     CLEAR     74  66  75 SW5       30.08F
NASHVILLE      CLEAR     76  68  76 S3        30.03S
WEST NASHVILLE   N/A     73  73 100 CALM      30.02S
PORTLAND       CLEAR     73  68  83 S6        30.02F
SMYRNA         CLEAR     74  70  87 CALM      30.04S
SPARTA         CLEAR     73  70  88 CALM      30.06F
$$
TNZ056-058-060-061-075>077-079-093>097-020600
...SOUTHERN MIDDLE TENNESSEE...

CITY           SKY/WX    TMP DP  RH WIND       PRES   REMARKS
COLUMBIA         N/A     73  73 100 CALM      30.02S
FAYETTEVILLE   CLEAR     73  68  83 S5        30.06S
LEWISBURG      CLEAR     70  67  90 CALM      30.04S
MCMINNVILLE    CLEAR     72  72 100 CALM      30.07S
MURFREESBORO   CLEAR     76  69  79 S5        30.03F
SHELBYVILLE    CLEAR     73  72  94 SE5       30.06S
TULLAHOMA      CLEAR     70  66  88 CALM      30.08S
WINCHESTER     CLEAR     72  70  94 CALM      30.07S
$$


...KEY TO REMARKS...
VSB - VISIBILITY IN MILES
WCI - WIND CHILL INDEX
HX  - HEAT INDEX



USA.gov is the U.S. government's official web portal to all federal, state and local government web resources and services.